Location: *
(58.7167°N, 26.1833°E)
Time: 12:14:25
(UTC+00:00)

Cosmos 1626 Rocket - Pass Details

Date: 25 August 2019
Orbit: 602 x 632 km, 82.5° (Epoch: 16 September)

Event Time Altitude Azimuth Distance (km) Brightness Sun altitude
Rises 21:55:26 0° 345° (NNW) 2,921 8.5 -20.5°
Reaches altitude 10° 21:57:42 10° 342° (NNW) 2,005 7.3 -20.6°
Maximum altitude 22:02:06 65° 262° (W) 685 3.7 -20.6°
Enters shadow 22:02:58 51° 208° (SSW) 778 3.7 -20.6°
